GFSNIL_850_spd_000.txt.gz
Wind_Speed
16 19 20 20 20 22 23 25 27 29 30 31 32 32 32 34 38 42 44 45 46 46
14 15 17 19 22 24 25 27 28 30 31 31 33 35 36 37 38 39 42 46 47 47
16 16 18 20 21 24 26 28 29 30 31 32 33 33 35 39 39 38 41 44 45 48
17 16 16 17 19 22 25 28 30 31 32 33 34 36 36 39 40 40 40 43 45 48
21 19 17 17 18 20 22 24 27 30 32 35 36 37 36 38 41 43 43 42 44 48
21 19 20 20 20 20 21 23 26 29 31 34 35 35 38 40 41 41 43 44 44 45
27 28 27 24 22 21 22 24 24 25 29 33 35 35 38 38 41 43 42 42 45 47
24 26 28 29 30 32 34 34 32 30 27 27 31 36 38 38 38 42 44 43 43 46
29 31 32 33 32 32 33 34 34 35 35 33 30 30 34 34 32 34 36 42 43 44
29 31 32 32 33 34 32 30 32 32 32 36 37 33 32 32 32 34 40 42 42 39
30 31 31 30 29 30 31 30 31 33 34 36 38 34 35 31 29 36 35 39 37 42
33 32 32 32 32 32 31 32 32 34 36 36 39 36 34 34 31 35 40 41 37 38
31 31 33 32 33 32 31 33 35 35 33 33 37 37 31 31 32 32 39 42 42 37
30 29 30 31 29 30 30 30 30 31 29 29 31 34 34 29 31 30 35 38 42 41

GFSNIL_850_spd_003.txt.gz
Wind_Speed
13 14 15 15 17 19 20 22 22 25 28 28 31 34 36 38 39 40 41 42 46 49
16 13 13 16 17 19 20 22 23 24 27 28 30 32 35 38 41 42 42 45 44 46
19 18 18 17 16 17 18 19 22 24 25 27 29 32 32 36 39 40 42 45 46 47
21 21 21 19 19 19 21 20 20 21 22 25 27 29 32 34 38 41 43 43 44 45
22 22 22 23 25 26 26 25 24 25 26 26 26 28 31 35 39 41 43 45 44 47
19 21 21 23 24 25 26 29 32 33 34 34 32 31 31 32 38 42 42 44 45 46
22 25 28 31 33 35 36 36 34 31 32 34 35 35 35 35 36 39 40 43 43 43
26 26 27 31 31 32 32 33 34 36 37 35 33 33 36 37 38 38 39 42 42 46
25 30 33 34 36 36 36 36 34 34 33 33 33 34 37 38 38 39 38 39 42 45
23 25 27 27 27 29 31 32 33 32 33 34 35 36 35 36 38 41 39 39 41 44
28 28 29 28 29 30 30 29 30 31 31 33 34 34 36 37 38 39 39 38 40 38
27 29 29 29 30 31 31 32 32 32 32 31 32 31 32 34 38 38 38 42 42 38
27 28 30 31 33 32 32 32 33 32 29 29 31 31 34 34 35 39 36 37 48 51
27 29 29 31 31 33 34 34 33 32 30 31 31 34 38 34 35 35 37 39 39 41

GFSNIL_850_spd_006.txt.gz
Wind_Speed
18 19 18 18 19 20 21 22 22 24 25 28 32 32 32 37 41 44 47 48 50 51
22 23 23 23 23 23 22 22 22 23 25 26 29 31 33 35 37 42 45 48 49 51
22 23 23 22 23 24 24 25 25 24 23 23 24 26 28 32 37 40 44 47 48 49
18 17 20 21 22 25 28 28 29 28 29 29 29 27 26 27 33 37 40 43 46 47
23 22 24 26 27 28 30 31 31 31 31 32 32 32 33 33 32 32 32 37 41 44
23 26 28 30 31 33 34 34 33 33 34 33 31 31 31 32 35 34 32 32 32 34
23 25 28 31 35 37 37 37 36 36 34 34 34 32 30 30 34 36 38 38 38 37
25 29 31 34 35 36 35 35 36 37 36 34 32 31 31 35 37 38 39 39 39 38
25 28 30 31 31 30 30 32 34 33 34 35 34 35 34 31 36 38 40 43 42 38
29 30 29 29 29 28 30 31 28 32 31 33 33 32 31 32 35 38 41 42 41 40
29 30 31 31 31 32 33 30 33 31 32 31 31 27 28 32 35 39 39 38 38 35
29 32 33 34 35 37 33 34 34 32 31 31 29 30 31 33 36 37 38 34 36 36
32 33 34 34 37 37 34 39 34 36 31 30 31 32 33 35 33 38 40 44 45 42
34 34 34 35 35 35 40 36 39 36 32 32 32 37 36 36 33 32 43 46 48 49

GFSNIL_850_spd_009.txt.gz
Wind_Speed
16 16 16 16 17 17 18 18 18 17 17 18 22 25 26 28 33 36 39 40 40 46
18 19 21 20 20 21 23 24 25 25 25 24 22 20 21 24 26 30 35 38 40 43
19 19 20 21 22 24 24 26 27 27 27 27 27 27 28 28 28 28 30 33 35 36
21 22 24 25 25 27 29 30 31 31 31 31 31 29 28 27 28 30 30 31 31 31
22 24 25 26 29 33 36 37 36 34 33 33 32 31 30 30 28 29 27 27 28 31
23 26 27 30 32 35 37 37 36 35 35 34 32 31 31 28 30 35 35 35 35 35
26 28 31 34 36 36 34 33 34 35 35 34 36 34 30 33 34 32 33 35 35 36
27 29 32 33 32 32 32 32 33 34 33 35 33 34 35 31 37 32 34 39 43 42
28 30 32 32 32 32 33 32 33 31 33 32 32 33 26 33 34 37 41 42 42 40
28 31 32 33 33 33 33 35 32 30 35 32 31 28 30 30 35 41 40 40 39 37
30 32 33 33 33 33 34 34 34 37 31 36 32 28 28 32 36 38 38 37 37 38
30 31 32 33 33 33 34 34 36 33 35 29 32 27 31 36 40 41 39 34 37 41
28 29 30 30 31 31 33 35 33 31 32 30 29 34 39 39 35 39 37 36 44 43
28 29 30 32 32 33 34 32 33 31 27 29 32 38 36 31 34 36 38 43 47 48

GFSNIL_850_spd_012.txt.gz
Wind_Speed
13 14 15 16 18 19 21 22 23 25 25 25 25 25 27 27 26 25 26 29 30 33
15 16 18 19 20 21 22 24 26 27 28 28 28 27 27 28 29 29 30 31 31 29
18 19 20 21 23 25 27 30 32 33 33 32 30 30 29 30 29 28 27 27 28 29
20 22 22 24 27 30 32 35 35 34 33 33 32 31 30 30 29 27 28 31 33 33
22 24 25 27 29 32 34 33 33 33 34 35 34 32 32 29 28 33 35 34 30 32
23 24 26 29 31 31 31 32 32 33 33 33 32 33 31 27 35 33 32 30 32 35
24 25 26 28 29 31 32 33 34 34 34 33 33 33 29 33 33 35 33 31 35 39
22 23 27 29 31 32 32 33 34 35 35 34 34 32 33 33 36 35 37 39 41 42
23 26 28 30 31 31 31 32 32 33 34 36 34 33 32 30 35 35 39 45 46 44
25 27 28 29 30 31 32 33 34 34 34 34 33 31 28 30 35 40 43 47 48 48
26 28 29 30 31 32 32 33 34 35 33 34 33 27 29 35 42 45 44 40 43 39
27 29 30 31 32 32 34 34 34 33 33 31 29 28 35 36 37 38 37 38 35 36
26 27 29 30 31 33 33 35 35 35 32 30 29 35 34 33 35 37 37 37 39 41
26 28 29 31 31 34 35 36 36 36 35 31 32 35 32 31 32 34 37 40 42 45

GFSNIL_850_spd_015.txt.gz
Wind_Speed
13 15 16 18 19 21 23 24 26 27 29 30 30 30 30 30 29 29 29 29 28 29
15 17 20 21 22 23 25 28 30 31 33 33 33 33 32 32 32 31 30 29 29 30
17 18 20 22 25 27 29 30 32 32 33 33 33 32 32 32 31 30 30 33 34 34
19 21 23 25 27 29 30 31 32 32 33 33 33 33 33 32 29 29 35 34 33 32
21 24 26 27 27 29 31 32 33 34 34 34 34 34 34 33 30 35 35 34 31 30
25 25 25 26 29 30 31 32 33 33 34 35 35 35 34 30 35 37 35 32 32 35
22 22 24 26 27 28 30 31 33 33 34 35 36 36 35 35 35 36 36 36 36 39
21 23 25 26 28 29 30 31 32 34 34 34 34 34 35 34 35 35 41 43 45 46
23 24 25 27 28 30 31 32 34 35 35 37 36 35 33 31 33 38 44 48 48 46
24 25 27 28 30 32 34 35 36 36 36 36 36 34 32 31 34 41 42 41 43 43
24 26 28 30 32 33 34 35 36 37 37 37 36 34 31 32 36 38 38 38 38 39
26 28 30 31 32 33 34 36 36 37 37 37 37 33 32 33 35 38 38 39 38 37
25 28 30 31 32 33 34 36 36 37 37 36 36 36 32 32 34 37 38 41 42 42
26 28 29 31 31 33 36 37 38 39 40 38 36 37 32 31 33 36 39 42 44 45

GFSNIL_850_spd_018.txt.gz
Wind_Speed
14 16 18 20 23 25 27 28 30 31 31 32 32 33 33 33 32 31 29 29 29 31
15 18 21 23 25 27 28 28 29 30 31 31 32 33 34 34 34 32 30 30 33 33
17 20 23 24 25 26 27 28 30 31 31 32 32 33 34 35 34 33 32 35 35 33
19 21 23 24 25 26 27 28 29 31 32 33 35 35 35 35 34 34 36 36 34 29
21 23 23 24 25 26 27 28 30 32 33 34 35 36 37 36 36 36 37 35 32 36
23 23 23 24 25 26 28 29 30 32 34 36 37 38 37 38 39 37 37 33 39 42
22 23 24 25 26 27 28 30 32 34 35 36 37 37 37 38 38 38 37 39 43 45
22 23 24 25 26 28 30 32 34 36 37 38 39 38 38 37 37 37 39 43 45 44
23 24 25 26 28 31 33 35 36 38 39 40 39 38 36 33 34 37 40 43 43 40
24 24 25 28 31 33 35 38 38 39 38 39 38 37 34 31 32 37 39 39 39 40
23 25 27 30 33 35 37 38 38 38 38 38 38 36 34 31 34 36 37 38 39 38
24 27 30 32 34 35 36 37 39 39 39 39 40 36 31 32 35 37 39 41 41 35
25 28 31 32 34 34 35 38 40 41 40 39 39 36 31 32 34 37 40 42 40 43
26 29 31 32 32 35 38 40 41 43 42 40 35 35 32 31 32 35 40 42 46 45

GFSNIL_850_spd_021.txt.gz
Wind_Speed
12 14 17 20 23 26 26 27 27 27 27 27 28 29 30 30 31 31 29 27 28 31
12 15 19 22 24 24 25 25 26 26 26 27 27 28 30 31 33 33 32 34 34 33
14 17 21 23 24 24 24 24 24 24 25 27 29 31 33 35 35 35 35 34 34 31
16 20 22 23 23 23 22 23 23 25 28 30 32 33 34 35 36 37 36 34 33 26
18 20 22 22 21 21 22 23 25 27 29 31 33 35 36 37 37 36 35 33 26 28
20 20 20 20 21 21 23 25 26 29 31 34 35 36 36 37 37 35 32 31 30 33
21 20 20 20 21 22 24 27 29 31 33 34 36 36 36 37 35 33 33 32 31 34
20 20 20 20 22 23 26 29 32 34 35 35 36 36 36 34 34 34 35 35 35 32
19 20 20 21 24 27 30 32 34 36 37 36 36 36 36 34 33 31 33 36 36 34
19 20 21 24 27 30 32 35 37 37 37 38 38 37 35 31 29 32 33 32 35 39
19 21 23 26 29 32 35 37 38 38 38 39 39 37 33 29 30 33 31 32 34 37
20 23 26 29 32 34 36 38 39 39 40 39 39 35 30 29 33 35 35 34 35 33
22 25 27 30 33 34 36 38 40 41 40 37 37 34 28 30 33 37 39 37 35 38
23 26 30 32 34 35 38 40 41 42 40 37 33 30 30 30 32 35 39 42 41 42

GFSNIL_850_spd_024.txt.gz
Wind_Speed
8 10 14 18 21 22 22 22 23 23 22 22 23 24 25 26 26 25 24 20 22 22
7 10 14 17 20 21 22 22 21 21 21 22 24 26 28 27 26 25 21 22 22 24
9 12 14 15 18 20 20 20 20 21 22 24 26 28 28 26 25 22 24 23 24 24
13 15 18 18 18 18 19 20 20 22 24 25 27 28 27 26 24 23 25 25 25 27
15 17 18 18 18 18 18 19 21 23 25 26 28 29 29 26 25 25 26 27 27 28
15 17 18 17 17 17 18 20 22 24 26 28 30 30 27 25 26 26 27 28 28 29
16 17 17 17 17 18 20 22 25 27 28 29 30 30 25 31 28 28 28 28 28 29
14 17 17 17 18 20 23 25 26 28 28 29 30 26 33 32 29 28 29 29 29 29
16 17 17 18 20 23 25 26 28 28 28 29 29 32 33 32 28 28 29 30 31 30
16 16 17 20 23 25 27 29 28 27 29 30 31 32 33 28 27 28 28 29 31 32
15 16 19 22 24 27 29 28 26 26 30 29 27 30 27 27 27 28 28 28 29 32
16 19 22 25 28 29 30 28 27 27 26 28 28 27 26 26 29 29 30 30 30 33
18 21 24 27 29 29 27 28 29 26 24 25 26 23 24 27 29 32 33 35 34 35
20 23 26 28 27 27 28 28 27 26 24 21 21 24 27 27 30 32 38 40 40 39

GFSNIL_850_spd_027.txt.gz
Wind_Speed
5 4 6 9 11 13 16 19 21 21 20 21 22 23 24 26 25 22 26 25 24 26
4 7 10 12 15 17 17 17 18 19 20 21 22 22 24 26 25 24 26 25 27 26
6 10 12 14 17 18 17 17 18 18 19 21 23 24 26 27 27 25 24 27 28 29
8 11 14 17 18 17 16 16 17 19 21 23 25 26 26 26 25 23 27 27 29 31
9 12 15 17 17 16 15 16 19 21 24 25 26 26 25 25 23 27 29 30 30 31
10 14 16 16 15 15 17 19 21 23 25 26 26 25 24 23 26 28 29 30 30 32
12 15 16 15 15 17 19 22 24 25 26 26 24 24 23 25 31 30 29 29 29 30
14 15 14 14 16 19 21 24 25 26 25 24 24 23 26 30 31 31 31 30 30 30
14 14 14 16 19 21 24 25 25 25 24 25 26 25 26 27 30 30 29 31 32 32
13 14 16 19 22 23 24 26 25 24 25 27 29 26 27 27 28 28 30 31 33 35
14 16 18 21 22 23 24 24 25 26 27 28 28 26 27 26 29 30 30 31 32 34
15 17 20 22 24 25 25 27 27 28 29 28 29 26 25 27 30 33 34 32 33 36
17 19 21 24 25 25 26 27 28 28 28 26 28 24 25 27 31 34 35 37 40 36
18 21 23 24 24 25 26 27 28 28 27 25 24 26 27 27 30 33 38 43 41 39

GFSNIL_850_spd_030.txt.gz
Wind_Speed
7 4 5 7 11 14 17 19 20 20 18 18 19 21 24 26 27 28 28 29 27 29
4 3 6 9 13 16 18 20 19 18 17 19 21 24 26 28 29 29 29 27 30 31
2 5 8 12 16 18 19 18 16 16 18 21 24 27 29 30 30 29 27 29 34 33
2 6 10 14 17 18 16 15 16 19 21 24 27 29 30 30 30 29 29 34 35 34
4 8 11 15 16 16 15 16 18 21 24 27 29 30 30 31 30 28 34 40 37 36
6 10 13 15 15 15 15 18 21 24 27 29 30 30 30 30 29 33 40 39 36 36
8 12 14 15 14 15 18 21 23 27 29 30 30 30 31 28 35 37 40 38 35 31
10 13 14 14 15 17 20 23 27 29 29 29 30 31 28 31 33 37 40 36 31 32
11 13 14 15 17 20 23 26 28 29 28 29 31 33 28 27 31 35 36 35 35 34
11 12 14 17 20 23 26 28 28 29 30 31 33 30 27 27 30 33 37 34 36 37
11 12 15 18 22 25 27 27 30 31 32 32 32 28 28 27 30 35 36 36 35 35
11 14 17 21 25 26 27 29 31 32 32 32 30 30 27 27 32 37 37 35 33 37
12 16 20 24 25 27 28 30 31 32 31 31 33 29 26 27 32 34 37 38 43 39
14 18 22 23 25 28 28 30 31 33 33 33 30 29 27 28 29 33 38 43 46 43

GFSNIL_850_spd_033.txt.gz
Wind_Speed
12 8 5 2 5 9 13 17 19 17 15 15 17 18 21 23 25 26 26 26 25 26
9 5 2 4 8 12 16 17 16 14 14 16 18 21 24 26 27 27 27 27 26 29
6 3 2 6 10 14 16 15 13 14 15 18 21 24 26 27 27 28 28 27 30 35
4 1 4 8 12 15 15 13 13 16 19 22 24 26 27 27 28 29 29 31 36 37
2 2 6 11 13 14 12 13 16 18 21 23 25 26 27 29 29 30 33 36 36 37
1 4 8 11 12 12 13 15 17 21 23 25 27 28 29 30 29 32 33 35 37 38
1 6 10 11 11 12 14 17 20 23 24 26 28 29 31 30 31 31 34 36 36 36
3 7 9 10 10 13 16 20 22 24 25 27 28 30 30 29 29 32 35 36 37 37
4 8 8 10 13 16 19 21 22 24 26 27 29 29 27 26 29 32 33 37 39 38
5 7 9 12 15 18 20 22 23 25 27 29 29 28 27 27 29 31 34 36 38 39
6 7 10 13 17 19 21 23 25 27 28 28 28 28 27 27 28 32 35 34 36 36
6 8 12 15 18 20 22 24 27 28 28 29 30 29 26 25 29 33 33 36 36 36
6 10 14 17 19 22 23 26 27 28 28 29 29 30 25 25 27 32 36 38 42 38
8 12 15 18 21 23 25 27 29 30 30 30 31 33 28 26 27 31 35 41 42 45

GFSNIL_850_spd_036.txt.gz
Wind_Speed
16 13 10 6 2 3 8 12 14 13 11 12 15 17 19 21 23 24 24 25 25 24
15 12 8 4 2 5 9 12 12 11 12 14 17 19 22 23 24 24 26 26 26 28
14 10 5 1 4 8 11 11 10 11 13 16 19 21 23 23 24 26 26 27 30 31
12 8 3 2 6 9 10 9 10 13 16 19 21 22 23 25 26 26 28 30 31 32
9 5 1 4 7 8 8 9 12 15 18 20 22 23 25 27 26 28 29 29 31 33
8 4 2 5 7 7 8 11 14 17 19 21 23 25 26 26 27 26 27 30 33 35
6 3 3 5 6 7 10 13 16 18 20 22 24 26 26 27 27 29 30 31 33 34
5 2 4 5 6 9 12 16 17 19 21 23 25 26 27 26 28 30 32 31 32 34
4 3 4 6 8 11 14 16 18 20 23 24 25 26 25 25 28 30 31 33 36 36
3 3 5 7 10 13 15 17 19 21 23 25 26 27 29 28 28 30 33 33 32 35
3 4 5 9 12 14 16 18 21 22 24 26 28 29 30 29 29 32 31 32 32 35
3 4 7 10 13 15 17 19 21 24 26 27 29 28 28 26 30 32 34 33 34 34
2 5 8 11 14 17 18 21 23 24 26 27 28 27 27 24 28 34 35 37 40 36
2 6 9 13 16 18 20 23 25 27 27 27 28 28 26 23 26 31 35 39 39 43

GFSNIL_850_spd_039.txt.gz
Wind_Speed
22 20 17 13 8 4 4 7 10 12 12 12 14 15 18 20 21 22 22 23 23 23
20 16 13 10 6 3 6 8 10 10 11 13 15 18 20 22 22 23 24 24 25 28
18 15 12 8 4 4 7 8 9 10 12 14 17 20 22 22 23 24 24 26 28 28
18 14 10 6 4 5 7 8 9 11 14 17 20 21 22 23 25 25 26 26 27 29
15 11 7 4 4 6 7 9 11 13 17 19 20 21 23 24 25 26 26 27 28 30
13 9 5 3 5 6 8 10 13 16 18 19 21 22 24 25 25 26 27 28 29 30
11 7 4 4 5 7 9 12 15 16 18 20 22 23 25 25 26 27 28 29 30 32
10 7 5 5 6 8 11 14 15 17 18 21 23 25 26 26 27 28 31 32 33 32
9 7 5 5 7 9 12 14 16 18 21 22 25 26 27 24 28 30 31 32 31 30
9 6 5 6 8 10 13 15 17 19 22 24 26 26 26 26 28 30 30 30 30 31
8 6 6 6 9 11 14 16 19 21 24 26 27 26 26 28 30 30 30 31 30 33
7 5 6 8 10 12 15 18 20 23 25 26 26 26 28 29 30 30 33 32 33 31
6 6 6 8 12 15 17 20 22 24 24 25 26 27 28 26 27 31 33 36 35 36
6 5 7 10 14 17 19 22 24 24 25 26 27 28 27 23 25 29 34 39 40 42

GFSNIL_850_spd_042.txt.gz
Wind_Speed
24 22 22 19 15 10 5 3 6 9 11 12 13 14 16 18 20 20 20 20 21 22
26 24 21 16 12 7 3 5 7 9 11 12 14 16 18 19 20 20 21 22 23 24
25 21 17 13 8 4 3 6 8 10 12 14 17 18 19 19 21 21 22 23 23 24
24 19 15 10 6 3 4 6 9 11 13 15 18 19 20 21 22 23 24 24 26 27
20 17 12 8 4 3 5 7 10 12 14 17 18 20 21 23 23 24 26 27 28 29
19 15 10 6 3 3 6 9 11 14 16 17 19 21 22 23 24 25 27 28 29 31
17 12 8 5 3 4 7 10 12 15 17 19 21 22 23 25 26 27 28 29 29 29
14 11 7 4 3 6 9 11 13 16 18 20 22 24 27 26 27 28 29 29 28 28
13 9 6 3 5 7 10 12 15 17 19 21 23 26 27 26 27 28 29 29 29 28
12 8 5 4 5 8 10 13 16 18 21 23 25 27 28 27 27 28 28 28 30 31
10 7 5 4 6 8 11 14 17 20 23 25 26 28 29 28 27 27 27 29 30 34
9 6 4 4 6 9 13 16 19 22 24 26 27 28 29 27 27 28 30 30 30 33
9 5 3 5 7 12 15 18 21 22 24 26 28 28 28 24 25 29 30 31 37 34
6 4 3 6 10 13 17 20 22 23 24 26 27 28 27 25 24 27 30 36 36 38

GFSNIL_850_spd_045.txt.gz
Wind_Speed
32 31 28 24 22 19 14 9 4 4 6 8 10 11 13 15 16 17 18 18 19 20
30 29 26 25 21 16 10 5 2 5 7 8 10 12 14 15 16 17 18 19 20 21
29 28 26 23 18 12 7 3 3 5 7 9 11 13 14 15 17 17 19 20 21 23
32 28 24 19 14 9 5 2 3 6 8 10 12 14 15 16 18 19 20 21 23 24
31 27 22 16 11 7 3 2 4 7 9 11 13 14 16 17 19 20 22 23 25 26
28 23 18 13 9 5 2 3 5 8 10 12 13 16 18 19 20 22 24 25 26 27
25 20 15 11 7 3 1 4 7 9 11 13 15 18 19 21 22 23 24 25 26 26
22 17 13 9 5 2 2 5 7 10 12 15 17 19 21 23 24 25 26 26 26 26
19 15 11 7 3 1 3 6 9 11 14 17 18 20 22 24 24 25 26 27 27 26
17 13 9 5 2 2 4 7 10 13 16 19 20 22 23 23 24 25 26 26 27 27
14 10 8 4 1 3 6 9 12 16 18 20 22 23 24 25 25 26 26 26 26 30
12 9 6 2 1 4 8 11 14 18 20 21 22 24 25 26 26 26 27 27 29 31
11 7 3 1 3 6 9 13 16 18 20 21 23 24 25 24 23 23 25 26 28 26
9 4 2 2 5 8 12 15 18 19 20 21 23 25 25 24 20 23 26 29 28 31

GFSNIL_850_spd_048.txt.gz
Wind_Speed
28 33 34 31 30 26 24 19 13 9 5 4 5 7 9 10 11 12 13 14 15 15
30 34 34 31 27 24 21 16 11 7 4 3 6 8 9 10 12 13 14 15 16 17
31 33 32 30 28 23 18 13 9 5 2 4 6 8 9 11 12 14 15 16 18 19
34 35 32 30 26 20 15 11 6 3 2 4 7 8 10 12 14 15 16 18 19 20
36 35 32 29 23 17 12 8 5 2 3 5 7 9 11 13 15 17 18 20 20 21
37 34 30 25 20 15 11 6 2 2 4 6 8 10 13 15 17 18 20 20 22 23
36 31 27 22 17 13 8 4 1 2 4 7 10 13 15 16 18 19 20 22 23 23
33 28 23 19 14 10 6 2 0 3 6 9 12 14 16 17 18 19 20 22 22 20
29 24 20 16 12 8 4 1 2 5 8 11 13 16 18 19 19 20 21 21 20 20
25 22 18 14 10 6 3 1 4 7 10 13 15 17 19 21 22 20 21 20 20 20
22 18 15 11 7 4 2 3 6 9 12 15 17 18 20 22 22 20 19 19 20 20
19 15 12 9 5 2 2 5 8 12 15 16 18 20 21 23 20 17 18 19 20 21
16 13 10 6 3 0 3 7 11 14 16 18 19 21 22 23 19 17 19 20 21 22
14 10 6 4 1 2 6 10 13 15 17 18 20 21 22 22 18 17 21 22 23 22

GFSNIL_850_spd_051.txt.gz
Wind_Speed
29 27 29 32 34 30 29 26 21 19 14 10 6 4 4 6 9 10 11 12 13 14
29 29 32 34 31 30 26 24 21 16 12 8 4 3 5 8 9 11 13 13 15 16
29 30 33 34 33 28 25 22 18 14 9 5 3 3 6 8 10 12 13 14 15 17
31 31 33 32 29 27 23 21 15 11 7 3 2 5 7 9 12 13 14 16 18 19
32 34 34 32 30 25 22 17 12 8 5 2 3 5 8 10 12 14 16 17 18 19
37 36 34 31 27 24 19 14 10 6 3 2 4 6 9 11 13 16 16 17 18 21
39 36 32 29 25 21 16 12 8 4 2 3 5 8 11 13 15 16 17 18 20 21
38 34 30 26 22 18 13 9 5 2 2 5 8 10 12 15 16 17 18 19 20 21
34 31 27 23 19 14 10 7 3 1 4 7 10 12 15 16 18 19 20 22 23 21
31 28 24 20 16 12 8 5 1 2 6 9 13 14 16 18 20 22 21 21 20 21
28 24 20 16 12 9 5 2 1 5 8 11 14 15 17 20 22 20 19 20 20 21
23 20 17 13 10 6 3 0 4 7 11 13 13 18 19 22 22 20 19 18 20 21
20 16 14 11 7 3 2 2 6 10 12 14 15 18 20 22 22 20 18 20 21 20
18 15 11 6 5 3 1 6 9 12 13 15 16 18 22 22 20 18 21 24 24 25

GFSNIL_850_spd_054.txt.gz
Wind_Speed
35 34 32 30 30 30 32 31 30 27 23 18 15 10 8 7 6 7 8 9 10 12
31 33 30 31 30 32 34 32 28 23 19 16 13 9 6 5 6 7 9 11 13 14
36 32 30 31 34 35 32 28 25 21 19 15 10 6 5 6 6 8 11 13 14 16
35 31 32 34 35 33 30 27 24 20 16 11 7 5 4 5 7 9 12 14 16 17
29 31 34 36 34 30 29 26 21 17 13 9 5 4 4 6 9 11 13 15 17 19
31 32 34 34 32 30 26 23 19 14 10 6 3 3 5 8 10 12 15 16 18 21
34 36 37 34 32 28 24 20 15 12 7 4 3 5 7 10 12 14 15 17 20 22
39 38 36 33 29 25 21 16 12 7 5 3 4 6 9 12 14 15 17 18 20 22
40 38 34 30 27 22 18 13 9 6 2 2 5 8 11 13 15 17 19 20 21 22
38 34 31 27 23 18 15 10 7 3 1 5 8 10 13 15 17 19 20 21 21 23
35 32 27 23 19 15 11 7 4 1 4 7 11 12 14 17 19 21 20 20 20 22
29 28 25 20 16 12 8 4 2 3 7 9 12 15 16 19 21 22 21 20 21 23
26 23 20 16 13 8 5 2 3 6 9 11 12 15 20 23 23 23 22 22 25 24
21 19 16 11 8 6 3 2 5 8 10 12 15 18 21 23 23 23 25 27 28 26

GFSNIL_850_spd_057.txt.gz
Wind_Speed
44 44 43 44 45 41 37 34 30 27 28 25 22 18 16 13 11 10 8 8 9 10
41 40 38 40 38 36 35 30 30 28 28 25 20 16 14 12 8 8 8 9 11 12
36 35 35 33 33 33 31 32 32 29 25 20 18 16 13 10 9 9 8 10 12 13
32 33 32 31 30 30 33 32 30 26 23 21 19 15 12 10 8 8 9 11 13 15
31 32 31 28 29 35 34 32 28 25 23 19 15 12 7 7 7 8 10 12 14 16
32 31 28 29 35 35 34 30 27 24 20 17 11 7 7 7 7 9 11 13 15 17
30 30 31 34 35 33 31 28 26 21 16 12 8 8 6 6 8 10 12 15 17 19
30 30 34 36 37 33 30 26 20 17 14 9 6 6 4 7 10 12 13 15 17 19
33 35 39 38 34 31 27 23 19 13 9 7 6 3 5 8 11 13 15 17 18 19
37 40 38 35 31 28 24 20 15 11 8 5 2 4 8 10 12 14 17 19 20 20
37 35 32 29 27 24 18 12 10 8 5 2 4 7 9 11 14 16 18 19 19 21
32 30 31 26 20 16 15 12 8 4 1 4 6 9 11 14 16 17 17 18 19 22
31 29 24 22 20 17 12 7 4 2 2 5 7 10 14 19 20 19 20 22 24 24
23 22 22 19 14 10 7 5 2 2 5 7 9 12 15 16 17 21 24 27 27 25

GFSNIL_850_spd_060.txt.gz
Wind_Speed
38 39 41 43 41 42 43 42 40 38 34 30 27 27 26 22 19 16 15 13 12 13
38 41 39 42 41 41 41 40 38 35 32 28 26 27 22 20 15 13 12 13 14 12
34 39 40 39 39 38 38 37 35 33 30 27 27 24 21 18 15 13 13 12 12 13
31 38 37 36 36 35 33 34 32 31 29 27 25 23 19 16 14 11 12 13 14 13
24 29 31 31 31 31 31 31 31 30 29 26 23 19 15 13 11 10 11 12 13 14
26 26 27 28 27 27 29 32 32 30 28 25 20 17 14 11 8 8 10 13 15 15
30 26 26 24 24 28 32 34 31 28 23 21 18 15 11 8 8 9 12 14 15 16
28 26 25 26 28 32 33 32 29 25 20 16 13 10 6 6 8 10 11 13 15 17
26 26 26 27 29 33 32 29 27 23 17 13 7 8 6 6 9 11 12 14 16 17
25 26 28 28 30 30 28 26 23 18 15 10 8 7 6 8 9 11 13 16 17 18
24 24 24 28 28 27 24 21 17 14 11 8 6 6 6 7 9 12 14 15 17 19
16 25 29 27 27 24 20 17 14 10 5 4 4 5 7 8 11 12 14 16 18 22
26 28 29 24 21 18 14 14 8 6 6 3 3 6 9 13 15 17 18 20 22 23
28 26 23 21 18 16 11 8 8 4 2 2 4 7 10 12 16 18 22 24 24 24

GFSNIL_850_spd_063.txt.gz
Wind_Speed
25 32 35 36 38 42 46 46 41 44 42 37 34 33 29 28 27 25 23 21 19 17
24 26 30 37 37 40 40 42 40 39 38 35 32 29 29 28 25 24 21 19 16 14
23 23 26 32 39 38 37 39 39 38 35 32 30 30 29 26 24 21 19 16 15 13
23 23 25 30 37 39 35 33 35 34 31 30 31 31 27 23 20 18 17 14 12 12
23 22 23 27 33 35 32 30 28 27 30 31 30 26 23 21 16 13 11 11 10 12
24 21 20 23 26 28 26 25 27 30 31 30 26 23 19 15 11 9 9 11 14 15
24 20 18 19 20 22 24 26 28 29 28 25 23 20 17 14 12 7 8 12 16 16
20 17 19 19 21 23 24 26 25 26 26 24 20 17 13 9 8 7 9 14 15 17
18 19 20 21 23 23 23 25 27 26 24 20 16 11 9 4 2 8 12 15 15 16
20 19 21 21 20 21 25 27 25 23 17 15 11 6 2 4 9 13 12 13 16 17
17 17 17 17 21 25 23 22 21 18 13 8 5 2 3 7 8 9 12 15 17 18
11 14 16 22 22 24 22 20 18 15 12 6 3 6 7 6 8 12 14 15 17 21
18 21 25 26 25 22 19 17 15 9 6 6 5 6 7 10 11 13 16 17 20 21
26 27 26 23 21 18 15 12 9 7 5 3 4 6 8 11 13 16 19 21 22 21

GFSNIL_850_spd_066.txt.gz
Wind_Speed
22 26 29 31 30 32 35 40 43 43 41 42 40 37 36 36 33 31 30 28 27 24
20 20 21 25 30 35 36 36 41 43 43 40 38 36 33 31 31 31 29 27 24 20
23 21 18 20 26 29 33 36 36 39 38 37 35 31 30 30 30 28 26 23 19 18
26 22 22 20 24 29 31 32 33 32 33 33 29 29 29 28 28 24 21 20 17 14
27 23 22 21 22 25 26 27 27 26 27 27 26 29 30 28 24 20 16 13 11 10
20 22 21 18 17 16 18 20 21 22 25 25 27 27 26 23 20 17 15 13 9 8
14 15 15 10 11 13 15 18 20 21 23 24 25 22 20 18 18 15 13 10 9 8
7 9 10 10 12 13 16 19 21 22 23 23 21 20 18 17 13 10 7 8 8 10
9 12 11 11 13 14 16 17 18 23 23 21 19 16 12 12 10 6 5 7 8 12
12 13 12 14 14 15 16 17 20 21 19 17 14 11 8 5 1 5 5 7 10 13
10 9 10 10 13 19 20 20 20 19 16 14 13 9 5 6 3 4 7 9 13 15
8 11 14 16 19 21 22 21 21 19 16 11 8 7 3 2 3 8 10 11 14 18
11 14 20 21 21 20 20 19 16 14 11 9 6 4 2 4 7 9 12 14 16 18
17 21 22 22 21 19 18 16 15 12 9 5 2 1 6 9 10 13 15 17 19 19

GFSNIL_850_spd_069.txt.gz
Wind_Speed
21 27 30 31 30 31 31 31 32 35 40 40 40 38 38 39 38 39 38 37 34 32
20 22 24 25 27 29 30 31 32 33 39 41 42 40 39 38 36 35 35 33 33 30
24 24 25 24 24 25 26 28 31 31 31 35 39 37 36 35 31 32 32 31 26 23
30 29 26 26 25 24 25 25 25 26 27 28 30 31 31 29 29 30 29 25 23 21
21 25 26 25 26 24 22 21 20 20 21 22 24 27 27 27 27 25 24 23 21 18
12 14 18 19 19 18 15 13 13 16 19 21 23 25 25 24 24 21 19 17 15 16
6 6 9 10 9 8 8 10 14 16 19 22 24 24 23 21 20 18 14 12 9 11
2 4 6 7 7 6 6 10 13 17 19 21 21 21 19 18 14 11 10 10 11 9
6 7 8 9 8 7 7 11 13 17 21 22 19 17 15 11 10 10 8 5 3 4
9 10 10 8 7 7 9 12 13 16 16 14 12 13 13 12 9 6 3 1 3 6
7 7 10 8 6 10 13 16 18 18 16 16 16 13 11 8 6 4 2 2 4 7
5 6 9 10 13 16 17 17 17 15 16 15 14 12 9 6 4 1 2 5 8 12
9 10 15 16 17 18 14 16 17 16 14 13 11 9 7 4 3 3 6 8 11 14
14 14 15 16 16 17 17 17 14 13 12 8 7 6 6 6 6 8 10 11 13 14

GFSNIL_850_spd_072.txt.gz
Wind_Speed
27 32 33 34 33 34 35 33 33 35 35 35 38 44 43 43 44 43 44 44 42 39
22 24 27 28 31 33 34 34 32 31 32 31 34 39 41 43 41 41 42 43 39 38
25 26 26 26 28 29 30 30 28 28 29 29 27 29 34 37 37 35 35 35 33 36
24 27 29 29 29 28 28 27 26 25 24 24 24 25 28 31 31 30 30 31 29 22
16 18 21 25 26 25 24 22 20 20 20 19 19 22 24 27 27 27 27 26 23 23
7 9 11 13 16 17 17 17 16 14 13 15 17 19 22 23 24 23 20 18 17 14
4 2 2 5 7 8 8 9 10 10 11 13 16 17 20 21 21 20 18 16 13 12
6 4 3 3 3 5 6 6 7 9 11 13 14 16 18 18 17 15 13 13 12 11
8 7 7 7 6 5 5 5 5 6 9 12 14 13 12 12 10 11 10 7 6 6
8 10 11 9 8 7 7 8 9 11 12 11 11 9 10 9 8 6 6 5 2 3
9 9 9 8 9 10 10 11 15 16 13 13 14 10 10 10 9 6 4 3 2 4
7 8 10 13 14 14 15 16 17 15 13 12 14 11 10 7 5 3 0 2 4 6
12 14 17 17 17 16 13 17 17 17 14 13 11 9 5 3 2 2 3 6 8 10
17 18 18 18 15 15 16 16 14 12 11 9 7 6 4 4 4 4 7 8 10 10

GFSNIL_850_spd_075.txt.gz
Wind_Speed
24 29 31 29 28 25 29 30 31 31 30 30 31 32 34 37 39 41 41 41 40 43
18 19 22 26 27 31 32 29 26 26 27 25 25 28 30 34 37 38 37 38 42 45
22 22 21 22 22 22 25 28 30 29 27 25 22 22 25 29 33 36 38 38 37 39
19 21 22 24 23 25 27 25 23 24 23 22 21 21 22 25 27 31 33 33 32 32
12 14 16 18 21 22 22 20 18 17 18 17 17 17 18 20 23 25 27 27 26 23
4 5 7 9 10 12 13 13 13 12 11 10 11 12 15 17 19 20 19 17 16 14
2 1 1 2 3 5 7 7 8 8 9 8 8 10 12 13 14 15 15 12 8 6
2 3 3 3 3 3 4 5 5 4 3 3 6 5 6 7 8 8 8 7 6 6
5 6 6 7 7 6 5 5 4 4 4 5 5 5 4 3 4 7 7 7 5 3
8 9 9 8 7 7 7 7 8 8 9 9 8 6 7 7 6 6 5 4 4 2
8 6 7 7 6 7 10 11 11 12 10 8 11 9 9 8 7 5 4 3 2 3
6 5 8 12 13 15 14 16 15 14 12 10 12 9 7 8 6 4 2 2 4 6
10 11 14 16 16 16 15 16 16 15 14 13 13 11 7 5 3 1 3 5 7 7
15 17 17 17 16 16 16 15 14 13 12 10 8 6 4 3 4 4 6 7 9 12

GFSNIL_850_spd_078.txt.gz
Wind_Speed
24 27 28 30 29 21 19 21 24 25 25 24 24 25 28 31 34 36 39 41 41 40
15 17 19 22 28 29 29 24 19 20 22 21 19 19 22 26 28 30 34 36 39 42
17 18 19 19 18 21 27 29 28 25 26 26 24 22 21 21 24 26 32 36 36 37
16 18 19 20 21 21 21 23 22 21 20 20 22 20 19 19 21 24 26 28 30 31
9 10 13 15 17 18 18 19 18 16 15 14 14 14 14 15 16 18 20 23 25 25
6 7 7 8 8 8 9 10 12 11 11 11 11 11 11 12 13 14 16 16 14 12
3 2 1 2 2 3 3 3 4 3 3 3 4 4 6 7 8 8 8 9 8 7
1 2 3 3 4 3 3 3 2 2 1 1 2 2 3 3 2 3 5 6 6 5
4 5 6 7 7 7 7 5 4 5 3 2 3 5 5 4 3 3 4 4 4 3
8 9 11 10 8 8 9 7 6 7 7 8 10 10 8 9 6 6 5 4 4 4
8 8 9 6 4 7 9 9 9 11 11 10 13 11 10 10 8 6 5 5 4 2
7 7 8 10 8 12 13 15 14 13 12 10 13 12 9 8 6 5 4 4 4 5
8 10 12 13 13 15 14 14 14 15 13 11 10 9 6 5 4 3 2 3 4 6
12 14 15 15 15 15 16 15 14 13 12 9 8 6 4 3 3 4 6 7 8 8

GFSNIL_850_spd_081.txt.gz
Wind_Speed
32 34 35 33 31 24 23 22 20 19 19 21 20 21 23 26 30 32 35 36 35 39
18 20 23 27 29 31 32 29 23 20 23 21 20 17 18 20 21 24 27 29 31 35
17 18 19 20 20 22 26 30 29 30 27 25 28 24 21 20 21 22 24 26 28 31
16 17 19 21 22 22 22 21 23 25 25 23 20 20 20 21 20 20 22 24 23 22
12 13 15 17 18 20 21 22 22 21 19 18 16 16 17 16 16 17 18 19 21 21
7 7 8 8 9 9 11 11 12 12 11 11 10 11 11 11 9 11 12 13 15 16
5 2 1 2 4 4 4 3 4 4 3 3 3 2 4 5 6 7 10 10 9 8
1 3 4 5 5 5 5 5 5 5 5 4 4 3 2 3 2 2 3 2 3 4
5 6 7 7 7 7 7 7 7 7 7 6 7 7 9 8 7 5 4 4 4 3
8 9 10 10 8 9 9 8 8 8 9 10 11 10 10 10 8 7 7 6 4 2
10 11 10 7 7 8 9 11 9 10 11 10 12 12 13 12 10 7 7 6 3 1
9 10 10 11 8 10 12 14 13 12 11 11 14 12 12 11 8 5 3 2 1 2
10 10 12 12 11 12 12 12 13 15 14 12 12 10 8 6 4 3 2 3 4 6
10 12 13 13 12 13 14 15 15 14 13 11 9 7 5 3 2 3 5 6 7 8

GFSNIL_850_spd_084.txt.gz
Wind_Speed
29 31 31 30 30 30 28 29 27 24 25 23 20 23 22 23 26 28 28 29 31 33
30 31 33 33 33 32 31 31 26 24 23 21 23 26 24 20 21 22 25 28 29 30
17 19 21 22 23 23 24 26 28 26 25 24 24 24 21 21 23 23 23 23 25 26
17 19 20 21 22 22 21 20 20 22 25 27 29 31 29 25 22 21 22 22 20 22
15 16 17 19 20 20 20 20 20 20 20 21 22 21 21 18 17 17 17 17 17 18
11 13 14 14 14 14 15 16 17 17 17 18 18 16 14 12 12 12 11 12 13 13
8 9 9 9 10 9 8 7 7 8 9 8 8 8 7 6 7 8 8 8 7 8
5 4 5 5 6 6 6 6 5 5 5 7 7 7 6 7 6 6 6 4 5 4
4 6 6 7 7 7 8 8 8 8 8 7 7 7 8 7 7 7 7 6 6 5
7 8 9 8 8 10 10 9 9 8 8 9 10 10 11 11 10 10 9 8 6 4
9 10 10 9 8 8 9 9 8 8 10 9 10 12 13 13 10 9 8 7 5 2
11 11 10 9 8 9 10 10 12 10 8 10 13 13 12 11 9 6 5 3 1 2
10 10 10 11 9 9 11 13 13 13 13 12 13 11 9 7 6 3 1 2 3 5
11 10 11 11 11 12 13 14 15 15 14 12 10 8 6 4 2 2 3 4 6 7

GFSNIL_850_spd_087.txt.gz
Wind_Speed
25 26 28 28 30 32 32 32 31 30 28 27 24 24 23 22 24 24 26 26 24 25
26 28 29 29 30 29 30 31 31 31 28 27 25 25 24 24 24 25 25 28 27 26
25 25 25 27 29 29 28 28 29 30 28 27 29 29 27 25 26 25 23 22 25 24
16 17 18 19 20 21 21 21 20 21 22 25 26 29 29 26 28 26 25 24 22 23
14 16 18 20 20 21 21 21 21 21 21 21 25 26 28 29 26 22 22 20 19 18
12 14 15 16 17 17 18 18 18 19 20 20 20 20 20 18 19 20 14 13 13 12
10 12 13 14 14 13 11 10 10 12 13 14 16 15 14 11 12 11 9 9 8 8
9 10 10 9 9 9 9 9 8 8 7 7 8 8 8 8 8 8 9 9 9 8
6 6 7 7 8 8 8 8 8 8 8 8 8 9 9 9 9 9 8 9 7 6
6 7 7 7 7 7 8 9 9 9 8 9 10 10 10 10 10 10 9 8 7 6
7 8 8 8 8 8 9 9 9 9 9 10 11 11 11 12 11 10 9 8 6 4
10 10 10 9 9 9 10 9 9 10 7 7 13 14 14 12 11 8 6 4 2 1
11 12 11 11 10 10 10 11 13 11 11 12 14 13 11 10 8 5 2 1 2 4
11 12 12 12 12 11 12 13 14 13 14 14 12 10 8 6 4 2 1 3 5 7

GFSNIL_850_spd_090.txt.gz
Wind_Speed
26 27 26 24 24 25 26 27 28 28 27 26 26 26 25 24 22 21 21 22 21 22
23 24 25 26 27 27 27 28 29 30 29 28 27 26 26 25 24 24 22 21 23 23
25 26 28 29 30 30 29 30 30 30 30 29 27 25 27 26 28 24 24 22 25 23
21 21 22 22 23 23 23 22 21 21 21 21 21 22 24 25 26 25 25 25 25 24
15 15 16 18 19 20 20 20 20 20 20 19 19 18 22 25 29 27 26 28 27 21
12 13 14 16 17 17 18 18 19 19 19 20 20 21 22 25 26 27 24 22 21 19
8 10 12 14 16 16 17 17 17 16 16 16 16 16 16 16 16 17 17 16 15 13
7 10 12 13 13 14 13 11 11 9 10 10 11 12 12 12 12 12 13 12 12 11
8 9 10 8 8 8 8 8 8 8 8 7 8 8 9 9 10 10 10 10 11 9
7 7 7 7 8 7 8 7 9 9 8 8 8 9 10 11 10 10 9 9 9 8
8 8 8 8 8 8 8 8 9 9 8 8 9 10 11 10 10 10 10 9 8 6
9 9 9 8 7 8 9 9 9 8 8 8 9 11 12 11 11 10 9 8 6 4
11 10 11 10 10 10 10 10 10 11 9 8 12 14 13 13 10 8 7 5 4 2
12 12 12 12 12 12 12 12 13 13 12 12 13 13 12 11 9 7 5 3 2 4

GFSNIL_850_spd_093.txt.gz
Wind_Speed
21 22 21 22 21 20 20 21 21 22 23 23 24 24 25 26 26 25 24 23 22 20
24 23 23 22 21 20 21 22 24 25 25 26 26 27 27 27 27 27 25 23 21 20
19 19 20 21 22 24 26 27 27 28 30 30 30 29 28 26 26 27 25 25 22 21
19 20 22 23 25 28 28 27 26 25 24 25 23 23 24 23 23 28 23 25 23 22
19 20 20 22 23 23 23 22 21 20 20 20 19 17 16 16 19 24 23 24 23 23
13 13 14 16 17 18 19 20 20 19 19 19 18 17 17 18 22 21 25 24 23 20
9 9 10 12 14 15 17 17 18 18 18 19 18 17 18 18 20 20 20 20 19 18
7 7 8 10 12 14 14 14 14 13 12 13 13 14 14 14 14 16 17 17 16 14
7 7 8 10 9 10 10 9 9 9 9 10 10 9 10 11 12 11 11 11 11 11
9 7 7 8 7 7 8 8 8 8 9 9 8 8 9 10 10 10 10 10 10 10
11 9 7 7 7 8 9 9 9 8 8 8 8 8 10 11 11 10 11 11 10 10
13 13 10 8 8 9 9 9 8 9 9 7 7 9 11 11 12 12 12 11 10 8
14 13 13 11 11 10 10 10 10 10 8 8 7 10 13 13 12 12 11 10 8 6
14 13 12 13 12 12 12 12 12 11 10 9 10 13 14 14 12 10 9 7 6 5

GFSNIL_850_spd_096.txt.gz
Wind_Speed
29 30 29 31 31 28 26 26 28 26 25 23 24 24 24 24 24 25 26 25 26 26
29 28 28 27 26 25 24 26 23 22 21 22 23 24 25 26 26 26 26 26 26 25
29 28 28 27 25 23 22 22 22 23 24 25 26 27 28 30 30 29 28 25 25 25
21 21 21 21 21 22 22 23 23 24 25 26 27 28 29 30 29 29 26 25 26 24
15 16 17 18 19 19 20 21 22 22 21 21 22 21 22 21 21 19 20 23 27 24
12 13 14 15 17 18 18 19 19 20 20 21 20 20 20 19 18 17 18 21 22 20
10 11 12 12 13 15 16 18 18 19 19 19 18 18 19 18 18 20 22 25 22 22
9 8 8 9 10 13 15 16 17 18 18 18 17 17 18 17 18 20 21 22 20 19
9 9 8 8 10 12 13 14 14 14 14 14 14 12 12 13 15 16 16 17 16 16
11 11 10 8 8 10 12 12 10 11 13 12 12 11 11 12 13 13 13 13 12 13
12 12 12 11 10 7 8 12 12 12 12 12 11 10 10 12 12 13 13 13 13 12
14 14 14 14 14 12 8 10 12 11 11 10 9 10 11 12 13 13 13 13 13 13
15 15 15 15 14 15 11 11 12 11 11 9 9 7 10 12 12 14 14 14 13 12
15 15 15 15 14 15 14 12 12 12 11 10 10 9 11 13 13 13 13 12 11 10

GFSNIL_850_spd_099.txt.gz
Wind_Speed
28 22 20 19 15 15 18 23 20 18 21 24 23 27 33 37 38 35 33 30 27 26
30 28 29 28 27 28 27 25 25 29 32 31 30 31 31 34 33 29 27 28 27 27
35 32 29 28 29 30 28 29 30 29 30 29 28 28 28 28 29 30 31 29 27 24
25 29 29 28 26 26 25 25 24 24 24 24 25 26 28 28 31 30 31 29 26 26
15 15 16 17 17 17 17 18 19 20 22 23 24 24 25 25 25 23 23 22 25 28
10 10 11 12 13 15 16 17 18 19 20 21 22 22 23 23 23 22 20 18 22 22
10 11 11 11 12 12 13 14 15 16 17 18 19 19 20 20 21 20 18 18 21 21
9 9 8 8 8 8 9 10 12 14 16 17 17 17 18 19 19 17 18 19 22 21
9 9 8 8 7 7 7 10 13 15 15 15 15 13 13 14 15 15 16 18 17 18
9 9 9 9 8 8 9 10 10 13 15 14 13 12 12 12 13 14 15 16 16 17
9 10 10 10 10 11 11 12 9 9 11 15 15 12 12 12 13 13 14 13 13 13
12 12 12 13 14 15 14 14 12 10 9 12 12 10 11 11 12 12 12 12 12 12
13 14 14 15 16 15 15 14 14 11 9 11 11 11 11 12 13 13 13 13 12 13
14 15 15 15 15 15 14 15 14 13 11 11 11 11 10 11 13 13 13 13 13 13

GFSNIL_850_spd_102.txt.gz
Wind_Speed
7 9 4 11 21 16 14 23 23 20 15 13 17 13 11 18 23 24 34 32 34 36
18 18 18 27 21 21 15 11 7 15 8 8 12 16 21 30 30 32 35 34 30 28
25 31 26 27 26 32 26 27 24 22 23 24 27 26 31 34 34 33 32 30 28 26
31 37 34 34 33 32 29 30 30 31 31 33 34 29 27 27 27 29 31 31 32 31
20 18 20 23 22 19 17 18 17 17 17 19 21 23 25 26 27 28 29 27 28 29
13 12 11 11 12 12 12 13 13 15 16 18 20 22 24 24 25 25 24 23 22 21
15 14 13 11 10 10 10 10 11 12 13 15 18 19 21 22 23 23 22 22 22 19
13 11 10 9 9 8 8 8 8 9 11 14 17 18 20 21 21 21 21 19 18 20
11 11 11 10 8 8 7 7 7 9 10 12 14 17 17 17 19 19 20 19 20 21
11 10 9 8 8 8 7 6 8 10 12 12 12 12 14 15 15 16 16 17 18 20
10 10 10 10 10 10 9 10 10 10 11 12 11 10 14 16 15 16 16 17 18 18
10 10 11 12 12 12 12 12 13 14 13 13 13 10 12 14 16 14 14 15 15 15
11 12 12 12 11 11 12 13 14 14 13 13 13 11 11 14 13 13 13 14 14 14
12 12 12 13 13 14 13 13 14 14 14 14 12 12 11 13 12 13 14 14 14 14

GFSNIL_850_spd_105.txt.gz
Wind_Speed
13 9 10 13 9 8 10 9 5 19 25 25 18 17 16 14 13 16 18 20 24 21
16 16 13 11 9 7 7 9 9 13 15 21 5 6 10 18 16 17 19 22 29 27
17 15 17 14 14 14 13 17 16 14 10 14 12 11 18 17 20 26 29 31 35 33
18 19 21 21 23 22 22 19 22 24 29 28 26 28 29 28 29 31 33 33 32 31
17 22 24 26 29 31 32 31 33 32 31 32 32 31 31 29 28 28 29 30 31 32
18 18 18 17 18 23 24 21 20 19 20 19 20 21 23 24 25 26 27 28 29 28
16 15 13 11 11 12 13 14 15 15 15 16 17 18 19 21 23 25 26 27 26 25
15 13 11 11 12 13 12 12 12 10 10 11 12 14 16 19 21 23 24 24 24 23
14 14 13 12 13 11 10 9 8 7 7 8 9 11 13 15 18 20 21 20 21 20
15 14 13 13 12 11 9 8 7 8 9 10 11 13 13 14 16 18 18 18 18 19
13 13 12 12 11 10 10 10 10 11 13 14 15 14 14 14 14 15 18 18 18 17
12 12 12 13 13 13 13 12 13 14 16 16 16 15 15 15 14 14 16 17 16 15
12 12 13 13 13 13 13 14 14 15 15 15 16 16 16 15 15 14 14 14 14 14
13 13 13 13 13 14 15 15 16 16 16 16 17 17 16 15 15 13 13 13 13 13

GFSNIL_850_spd_108.txt.gz
Wind_Speed
13 13 12 14 13 11 11 9 8 9 15 17 21 20 22 21 18 15 14 16 16 15
14 12 10 11 11 8 8 8 10 8 8 11 16 13 12 10 9 17 24 23 23 21
17 15 14 12 12 12 12 12 12 11 11 11 9 16 15 11 9 8 13 16 19 24
19 18 17 16 16 16 16 14 15 15 16 16 16 18 19 18 18 20 25 28 29 29
21 19 18 17 17 21 22 22 22 23 24 25 25 27 30 30 30 32 35 30 29 28
20 20 18 19 20 19 21 24 27 26 28 28 29 25 26 26 24 24 24 26 29 30
20 19 18 18 15 13 12 13 15 16 16 15 16 18 18 20 21 22 24 25 28 29
17 16 15 14 14 12 11 11 11 12 12 13 14 15 16 17 18 19 21 23 26 27
15 14 14 13 11 11 10 9 9 9 9 9 11 12 13 14 16 16 19 21 22 24
14 12 12 11 11 9 9 9 9 9 9 10 12 13 15 16 17 18 18 18 18 21
13 12 12 12 11 10 9 10 10 10 11 12 14 15 16 16 18 19 19 18 18 20
12 13 12 11 10 10 11 12 12 12 13 14 15 17 17 18 20 20 19 20 18 17
12 12 11 11 11 12 13 14 14 15 15 16 17 16 17 19 21 20 19 19 17 16
13 12 12 13 13 13 15 15 17 18 18 19 18 18 18 17 18 19 19 19 17 15

GFSNIL_850_spd_111.txt.gz
Wind_Speed
14 15 19 20 21 22 22 24 24 23 21 20 16 15 17 18 22 26 21 25 15 11
10 11 9 10 11 11 11 11 10 7 4 4 6 12 16 16 17 15 15 17 16 14
12 11 11 12 13 12 11 11 10 9 8 9 8 8 11 11 9 9 8 10 11 13
15 14 14 14 12 10 9 9 9 10 10 10 10 11 13 14 15 16 16 18 20 24
17 15 15 14 13 13 14 14 16 16 17 16 15 17 18 20 22 24 25 26 27 25
17 16 17 15 16 16 18 17 18 19 19 19 19 19 19 19 17 18 19 19 20 22
18 17 16 15 16 17 15 13 12 12 13 13 12 11 11 12 13 14 16 17 19 20
17 17 18 17 15 13 11 9 8 6 7 7 8 9 10 10 10 11 12 14 17 20
17 16 15 14 12 11 9 8 7 7 8 8 8 9 9 10 11 14 16 17 17 20
15 14 13 12 10 10 10 9 9 10 9 8 8 9 11 12 14 15 17 18 18 18
14 13 11 11 11 11 10 9 10 9 8 9 9 11 11 11 13 15 18 19 19 19
12 11 11 11 10 10 10 9 10 10 11 11 12 12 11 12 13 16 19 21 21 20
11 11 11 10 10 11 11 11 12 12 13 13 14 14 15 17 18 18 17 18 20 19
11 11 12 12 12 12 12 12 13 14 14 16 18 18 19 17 17 17 15 17 18 19

GFSNIL_850_spd_114.txt.gz
Wind_Speed
15 14 18 24 20 15 23 31 31 23 23 24 26 24 20 17 17 13 15 17 16 12
11 12 18 24 20 18 25 29 27 27 23 16 16 14 11 9 8 9 9 8 10 12
15 16 16 20 20 19 17 13 14 14 11 10 9 7 6 5 3 3 5 7 9 9
11 15 16 18 18 16 15 14 12 9 8 9 9 8 9 9 9 10 12 14 16 17
14 15 16 18 18 15 12 11 10 11 12 13 13 13 12 11 14 15 17 17 16 16
15 14 16 15 12 10 11 12 13 15 15 15 15 16 15 15 14 13 12 12 11 12
13 12 12 12 11 10 12 12 12 10 10 12 14 13 11 9 8 8 8 9 10 12
13 13 12 11 11 12 11 10 9 7 7 7 7 7 6 5 5 5 7 9 11 13
12 11 12 13 11 10 10 9 8 7 8 8 6 5 3 3 4 5 8 11 13 16
12 13 13 11 11 11 10 9 9 8 8 7 6 5 4 5 6 9 10 12 15 17
12 13 13 12 11 10 10 9 8 7 7 7 6 6 6 7 7 9 10 12 13 17
11 11 11 12 11 11 11 10 10 10 11 10 10 10 9 10 10 10 11 13 14 16
11 12 12 13 13 11 12 12 12 13 12 11 10 12 11 12 12 11 13 15 16 15
9 10 11 11 11 11 11 11 11 11 11 11 12 13 13 14 14 15 15 15 15 13

GFSNIL_850_spd_117.txt.gz
Wind_Speed
14 5 11 21 40 32 26 23 20 14 11 18 27 28 29 27 25 25 16 12 11 10
13 16 26 13 10 18 18 16 20 18 22 20 23 20 26 27 17 14 13 11 7 5
15 17 21 26 24 25 26 26 28 31 27 29 23 19 17 14 12 9 9 8 7 7
15 17 21 29 28 25 21 23 23 21 19 18 17 17 15 15 13 10 9 10 11 13
21 21 21 22 22 21 20 21 19 20 18 17 18 16 15 14 13 12 13 13 14 13
20 19 21 22 22 21 19 19 17 16 16 16 16 16 15 15 16 15 13 13 12 10
19 19 21 21 18 15 15 14 13 13 14 16 18 19 19 18 16 13 10 8 7 7
18 17 16 15 14 12 12 13 14 14 14 14 14 13 13 11 10 9 8 7 6 7
16 15 13 13 12 12 11 12 12 13 13 13 12 11 11 10 9 8 6 5 6 8
13 13 14 13 13 13 14 14 14 13 13 13 12 12 11 10 8 6 5 5 5 8
13 13 13 14 14 15 16 15 15 15 15 14 13 12 10 9 8 8 7 7 8 10
12 13 14 15 16 16 16 15 14 14 13 12 11 11 10 10 10 9 10 11 12 13
11 12 13 14 15 16 16 15 14 13 12 11 11 11 11 12 13 13 15 13 15 13
10 10 12 13 14 14 13 13 13 13 12 12 11 12 11 12 14 15 15 14 14 14